Regional Weather Roundup
Issued by NWS

Home | Current Version | Previous Version | Text Only | Print | Product List | Glossary Off
Versions: 1 2 3 4 5 6 7 8 9 10 11 12 13 14 15 16 17 18 19 20 21 22 23 24 25 26 27 28 29 30 31 32 33 34 35 36 37 38 39 40 41 42 43 44 45 46 47 48 49 50

000
ASUS43 KMPX 170810
RWRMN
WEATHER ROUNDUP FOR MINNESOTA
NATIONAL WEATHER SERVICE TWIN CITIES/CHANHASSEN MN
300 AM CDT THU AUG 17 2017


NOTE: "FAIR" INDICATES FEW OR NO CLOUDS BELOW 12,000 FEET WITH NO
SIGNIFICANT WEATHER AND/OR OBSTRUCTIONS TO VISIBILITY. N/A MEANS
CURRENT SKY AND/OR WEATHER CONDITIONS ARE NOT AVAILABLE.

MNZ060>063-068>070-170900-
   Twin Cities Metro

CITY           SKY/WX    TMP DP  RH WIND       PRES   REMARKS
TWIN CITIES    LGT RAIN  68  65  90 S15G23    29.50F FOG
ST PAUL        CLOUDY    67  67 100 S13       29.51F
CRYSTAL        LGT RAIN  68  64  87 E9        29.48F FOG
BLAINE         CLOUDY    70  70 100 E7        29.50F FOG
LAKEVILLE      CLOUDY    64  64 100 S9G16     29.51F
EDEN PRAIRIE   LGT RAIN  68  66  93 S14       29.47F FOG
SOUTH ST PAUL  CLOUDY    66  66  99 S15G21    29.52S FOG
LAKE ELMO      LGT RAIN  68  66  94 S12G21    29.54F
$$
MNZ001>005-007-008-013>017-022>024-027-028-170900-
   Northwest Minnesota

CITY           SKY/WX    TMP DP  RH WIND       PRES   REMARKS
BEMIDJI        LGT RAIN  61  61  98 N3        29.75F
HALLOCK        FOG       61  57  88 CALM      29.82F VSB 3/4
ROSEAU           N/A     63  57  82 N5        29.81F
WARROAD        CLOUDY    63  59  88 NE5       29.82F
THIEF RVR FALL CLOUDY    62  61  96 N10       29.80S
CROOKSTON      CLOUDY    63  63 100 N9        29.79F
FOSSTON        DRIZZLE   61  61 100 N9        29.77F
DETROIT LAKES  RAIN      63  63 100 N7        29.75F
MOORHEAD       CLOUDY    63  61  94 N14       29.77S
PARK RAPIDS    LGT RAIN  65  62  90 N7        29.72F
MAHNOMEN       DRIZZLE   63  62  97 N10       29.75F
$$
MNZ006-009>011-018-025>026-170900-
   North Central Minnesota

CITY           SKY/WX    TMP DP  RH WIND       PRES   REMARKS
BAUDETTE       LGT RAIN  60  60 100 NE7       29.80F
FLAG ISLAND    CLOUDY    63  57  82 NE3       29.82F
INTL FALLS     LGT RAIN  60  59  96 NE3       29.80F FOG
WASKISH        LGT RAIN  61  61 100 NE5       29.78F
BIG FORK       RAIN      61  57  88 NE3       29.76F
LONGVILLE      RAIN      61  61 100 N5        29.70F
GRAND RAPIDS   HVY RAIN  60  59  96 NE8       29.74F FOG
CRANE LAKE     LGT RAIN  57  57 100 CALM      29.81F
ORR            RAIN      57  55  94 E3        29.76F
COOK           RAIN      57  57 100 NE3       29.79S
WALKER         RAIN      60  59  97 N5        29.73F
$$
MNZ012-019>021-037-170900-
   Northeast Minnesota

CITY           SKY/WX    TMP DP  RH WIND       PRES   REMARKS
DULUTH         LGT RAIN  60  60 100 E16G23    29.69F
ELY            RAIN      57  55  94 NE3       29.79F
HIBBING        RAIN      57  57 100 N10       29.74F FOG
EVELETH        RAIN      58  55  91 NE10      29.76F
DULUTH HARBOR  LGT RAIN  63  61  94 NE31G38   29.67F
TWO HARBORS    DRIZZLE   63  57  82 E10G17    29.70F
GRAND MARAIS     N/A     63  60  90 NE8       29.79F
G MARAIS ARPRT RAIN      55  52  88 E6        29.83F
$$
MNZ029>031-032-039>041-046>048-054>057-064-170900-
   West Central Minnesota

CITY           SKY/WX    TMP DP  RH WIND       PRES   REMARKS
FERGUS FALLS   DRIZZLE   64  64 100 N12G18    29.72S
WHEATON        CLOUDY    64  63  94 NW16G22   29.74F
MORRIS         LGT RAIN  66  64  94 N14       29.67F
ALEXANDRIA     LGT RAIN  64  64 100 N14       29.67F
ELBOW LAKE     HVY RAIN  64  64 100 N10       29.71F
WADENA         RAIN      63  63 100 N7        29.70F
GLENWOOD       LGT RAIN  64  63  94 N14       29.64S
APPLETON       RAIN      66  64  94 NW14      29.67S
BENSON         LGT RAIN  64  63  94 N15       29.66S
ORTONVILLE     DRIZZLE   64  63  94 MISG      29.71S
MADISON        RAIN      68  68 100 NW14      29.69S
WILLMAR        HVY RAIN  64  64 100 NW18G32   29.60R
$$
MNZ033>034-036-042>043-049>051-058-059-170900-
   Central Minnesota

CITY           SKY/WX    TMP DP  RH WIND       PRES   REMARKS
ST CLOUD       CLOUDY    66  66 100 NE7       29.53F
SAUK CENTRE    RAIN      63  62  97 N18G24    29.61F
PAYNESVILLE    LGT RAIN  64  63  97 N15G23    29.57F
AITKIN         LGT RAIN  61  57  88 N12G17    29.65F
PINE RIVER     HVY RAIN  59  57  94 N10       29.74S
BRAINERD       RAIN      61  60  97 N14       29.65F FOG
STAPLES        HVY RAIN  61  61 100 N7        29.70S
LONG PRAIRIE   HVY RAIN  61  61 100 NW13G22   29.63F
LITTLE FALLS   HVY RAIN  61  59  94 N6        29.60F
LITCHFIELD     RAIN      66  66 100 N21G28    29.51S
BUFFALO        CLOUDY    67  65  93 NE5       29.49F FOG
MAPLE LAKE     CLOUDY    68  67  97 NE6       29.50F
HUTCHINSON     LGT RAIN  67  67  99 N10G17    29.47F
$$
MNZ037-044-045-052-053-170900-
   East Central Minnesota

CITY           SKY/WX    TMP DP  RH WIND       PRES   REMARKS
PRINCETON      RAIN      68  66  94 NE8       29.53F
MORA           CLOUDY    63  61  94 NE8G17    29.58F
RUSH CITY      RAIN      65  64  94 NE7       29.55F
MOOSE LAKE     LGT RAIN  61  59  94 NE12G21   29.60F
HINCKLEY       CLOUDY    63  63 100 NE8       29.59S
CLOQUET        RAIN      63  59  88 E9G18     29.68F
MCGREGOR       CLOUDY    63  61  94 NE9G17    29.66F
$$
MNZ071>073-080-081-089-090-097-098-170900-
   Southwest Minnesota

CITY           SKY/WX    TMP DP  RH WIND       PRES   REMARKS
MONTEVIDEO     RAIN      64  64 100 N13G20    29.65S
GRANITE FALLS  LGT RAIN  66  65  96 NW17G25   29.65R
CANBY          DRIZZLE   65  64  94 W16       29.71F
MARSHALL       LGT RAIN  65  64  97 NW20      29.67S
REDWOOD FALLS  RAIN      65  63  93 NW23G43   29.56R FOG
OLIVIA         RAIN      64  63  94 NW25G35   29.54R
PIPESTONE      CLOUDY    66  63  88 NW13      29.74R
WINDOM         RAIN      64  63  94 W18G24    29.65S
WORTHINGTON    LGT RAIN  65  63  93 W13       29.70F
JACKSON        CLOUDY    64  61  88 W16G24    29.67F
TRACY          DRIZZLE   65  65  98 NW14G22   29.67S
SLAYTON        HVY RAIN  63  59  86 NW13      29.72R
$$
MNZ065>067-074>077-082>085-091>093-170900-
   South Central Minnesota

CITY           SKY/WX    TMP DP  RH WIND       PRES   REMARKS
MANKATO        LGT RAIN  66  63  90 SW17G29   29.52F
NEW ULM        LGT RAIN  64  63  94 W35G44    29.46F
ST JAMES       RAIN      64  63  94 W18G24    29.60S
FAIRMONT       CLOUDY    67  63  87 W15       29.64F
GLENCOE        CLOUDY    67  67 100 E6        29.44F
FARIBAULT      CLOUDY    66  64  94 S13G23    29.55F
OWATONNA       CLOUDY    66  64  94 S17G24    29.58F
WASECA         CLOUDY    64  61  88 SW16G23   29.59S
ALBERT LEA     CLOUDY    70  66  88 SW9       29.63S
$$
MNZ078>079-086>088-094>096-170900-
   Southeast Minnesota

CITY           SKY/WX    TMP DP  RH WIND       PRES   REMARKS
ROCHESTER      CLOUDY    66  65  96 SW17G25   29.62F
RED WING       CLOUDY    70  64  83 MISG      29.55F
STANTON        CLOUDY    69  63  83 S12G18    29.53F
DODGE CENTER   CLOUDY    66  63  88 S14       29.61S
WINONA         MOCLDY    70  64  83 SW6       29.62F
AUSTIN         RAIN      66  63  88 SW14      29.63F
PRESTON        CLOUDY    66  62  88 SW9G16    29.65F
$$
ABBREVIATIONS USED IN REMARKS
   TC - TEMPERATURES IN CELSIUS
  WCI - WIND CHILL INDEX
   HX - HEAT INDEX
  VSB - VISIBILITY
$$



USA.gov is the U.S. government's official web portal to all federal, state and local government web resources and services.